This demonstration page uses our WeatherBlox Daily Observations layout. Learn more.

39.29038, -76.61219

Hourly Observations for February 23, 2020

Temp ( °F °C ) Dew Point ( °F °C ) Humidity (%) Winds ( mph kmh ) Pressure ( in mb ) Visibility ( mi km ) Precip ( " mm )
12:54 am 00:54 undefined 37 2.8 17 -8.3 44 44 undefined N/A 30.25 1024 N/A 0 0
1:54 am 01:54 undefined 36 2.2 17 -8.3 46 46 undefined N/A 30.24 1024 N/A 0 0
2:54 am 02:54 undefined 34 1.1 18 -7.8 52 52 undefined N/A 30.24 1024 N/A 0 0
3:54 am 03:54 undefined 35 1.7 19 -7.2 52 52 undefined N/A 30.24 1024 N/A 0 0
4:54 am 04:54 undefined 33 0.6 20 -6.7 58 58 undefined N/A 30.26 1025 N/A 0 0
5:54 am 05:54 undefined 33 0.6 20 -6.7 58 58 undefined N/A 30.27 1025 N/A 0 0
6:54 am 06:54 undefined 31 -0.6 17 -8.3 56 56 undefined N/A 30.27 1025 N/A 0 0
7:54 am 07:54 undefined 35 1.7 18 -7.8 50 50 undefined N/A 30.27 1025 N/A 0 0
8:54 am 08:54 undefined 41 5 19 -7.2 41 41 undefined N/A 30.27 1025 N/A 0 0
9:54 am 09:54 undefined 43 6.1 19 -7.2 38 38 undefined N/A 30.26 1025 N/A 0 0
10:54 am 10:54 undefined 50 10 19 -7.2 29 29 undefined N/A 30.26 1025 N/A 0 0
11:54 am 11:54 undefined 54 12.2 17 -8.3 23 23 undefined N/A 30.23 1024 N/A 0 0
12:54 pm 12:54 undefined 56 13.3 18 -7.8 22 22 undefined N/A 30.19 1022 N/A 0 0
1:54 pm 13:54 undefined 56 13.3 21 -6.1 26 26 undefined N/A 30.16 1021 N/A 0 0
2:54 pm 14:54 undefined 55 12.8 19 -7.2 24 24 undefined N/A 30.14 1021 N/A 0 0
3:54 pm 15:54 undefined 53 11.7 17 -8.3 24 24 undefined N/A 30.12 1020 N/A 0 0
4:54 pm 16:54 undefined 52 11.1 16 -8.9 24 24 undefined N/A 30.11 1020 N/A 0 0
5:54 pm 17:54 undefined 51 10.6 11 -11.7 20 20 undefined N/A 30.12 1020 N/A 0 0
6:54 pm 18:54 undefined 50 10 14 -10 24 24 undefined N/A 30.12 1020 N/A 0 0
7:54 pm 19:54 undefined 47 8.3 17 -8.3 30 30 undefined N/A 30.12 1020 N/A 0 0
8:54 pm 20:54 undefined 46 7.8 19 -7.2 34 34 undefined N/A 30.11 1020 N/A 0 0
9:54 pm 21:54 undefined 45 7.2 21 -6.1 39 39 undefined N/A 30.11 1020 N/A 0 0
10:54 pm 22:54 undefined 44 6.7 22 -5.6 41 41 undefined N/A 30.09 1019 N/A 0 0
11:54 pm 23:54 undefined 42 5.6 26 -3.3 53 53 undefined N/A 30.09 1019 N/A 0 0

Powered by AerisWeather